Location: Julian California
(33.0790°N, 116.6010°W)
Time: 18:30:29
(UTC-08:00)

Cosmos 1763 Rocket - Pass Details

Date: 12 July 2018
Orbit: 734 x 779 km, 74.0° (Epoch: 15 December)

Event Time Altitude Azimuth Distance (km) Brightness Sun altitude
Rises 22:01:22 0° 351° (N) 3,167 7.6 -21.6°
Reaches altitude 10° 22:03:50 10° 358° (N) 2,245 6.6 -22.0°
Maximum altitude 22:08:39 42° 70° (ENE) 1,050 4.0 -22.7°
Enters shadow 22:09:05 41° 83° (E) 1,065 3.9 -22.7°
